Weather in Timiryazevskiy

Russia / Chelyabinsk Oblast     54°55′39″N   60°45′45″E
temp.,
°C
wind,
m/s
gust,
m/s
humid.,
%
clouds,
%
prec.,
mm/h
press.,
hPa
HPBL,
m
13 june, sun
sun1323:00+14se356356 0.0 102260
02:00+12se3362100 0.0 102346
05:00+11sse366716 0.0 102381
08:00+16sse496172 0.0 1023329
11:00+21s5747100 0.0 10231067
14:00+23sse553842 0.0 10221715
17:00+24sse4642100 0.0 10222043
20:00+20se356283 0.0 102275
14 june, mon
mon1423:00+16sse4659100 0.0 102281
02:00+16ssw3455100 0.0 102265
05:00+17s495365 0.0 1022172
08:00+19s4116193 0.0 1023366
11:00+23ssw7104339 0.0 1023775
14:00+26ssw783918 0.0 10221454
17:00+26sw574634 0.0 10211556
20:00+21ssw466046 0.0 102196
15 june, tue
tue1523:00+18ssw4854100 0.0 1020107
02:00+16sw486078 0.0 1020110
05:00+15sw466145 0.0 102086
08:00+20sw4963100 0.0 1020245
11:00+25sw674656 0.0 1019730
14:00+27sw564090 0.0 10171322
17:00+27sw564885 0.0 1017811
20:00+23sw366598 0.0 1016112
16 june, wed
wed1623:00+20w346183 0.0 101646
02:00+19w2257100 0.0 101611
05:00+17wsw2268100 0.1 101611
08:00+21ssw2362100 0.0 1016189
11:00+27wsw364515 0.0 10151186
14:00+29sw673720 0.0 10141657
17:00+24sw35524 0.0 1013102
20:00+22nw37653 0.0 1014138
17 june, thu
thu1723:00+18sw33685 0.0 101423
02:00+17sw33715 0.0 101327
05:00+16sw3375100 0.0 101330
08:00+21sw3566100 0.0 1011168
11:00+27ssw4646100 0.0 1010748
14:00+28ssw3543100 0.0 1007837
17:00+28ssw585013 0.0 10051084
20:00+17se3494100 21.4 100663